(°C)
(°C)
-1°
-1°
-1°
-1°
-2°
-1°
-0°
SW
SW
SW
SW
SW
WSW
WSW
(km/h)
5-8
5-7
5-6
6-7
6-8
7-10
8-13
(mm)
0
0
0
0
0
0
0
(%)
0
0
0
0
0
0
0

Wysokość słońca

/ -43.4°
sun-icon
UV 1
08:11
18:24
Ubywający Księżyc garbaty (233°)
20:38
13:13

METAR dla 51.15°N 51.54°E (UARR)

Czas Warunki Temperatura/
Punkt rosy
Wiatr Widzialność Pogoda Chmury Ciśn. atm. Zmień Surowy
VFR 2°C / 2°C 210º 4kt >10km - Clouds and Visibility OK 1016 No Significant change. Runway 22: Wet or puddles, 1-10% contamination with 2mm, friction coefficient 0.65. UARR 242200Z 21002MPS CAVOK 02/02 Q1016 R22/210265 NOSIG RMK QFE758/1011
VFR 3°C / 2°C variable 2kt >10km - Clouds and Visibility OK 1016 No Significant change. Runway 22: Wet or puddles, 1-10% contamination with 2mm, friction coefficient 0.65. UARR 242130Z VRB01MPS CAVOK 03/02 Q1016 R22/210265 NOSIG RMK QFE758/1011
VFR 3°C / 2°C 280º 4kt >10km - Clouds and Visibility OK 1016 No Significant change. Runway 22: Wet or puddles, 1-10% contamination with 2mm, friction coefficient 0.65. UARR 242100Z 28002MPS CAVOK 03/02 Q1016 R22/210265 NOSIG RMK QFE758/1011
VFR 3°C / 2°C 210º 4kt >10km - Clouds and Visibility OK 1016 No Significant change. Runway 22: Wet or puddles, 1-10% contamination with 2mm, friction coefficient 0.65. UARR 242030Z 21002MPS CAVOK 03/02 Q1016 R22/210265 NOSIG RMK QFE758/1011
VFR 2°C / 1°C 170º 4kt >10km - Clouds and Visibility OK 1016 No Significant change. Runway 22: Wet or puddles, 1-10% contamination with 2mm, friction coefficient 0.65. UARR 242000Z 17002MPS CAVOK 02/01 Q1016 R22/210265 NOSIG RMK QFE758/1011
VFR 2°C / 1°C variable 2kt >10km - Clouds and Visibility OK 1016 No Significant change. Runway 22: Wet or puddles, 1-10% contamination with 2mm, friction coefficient 0.65. UARR 241930Z VRB01MPS CAVOK 02/01 Q1016 R22/210265 NOSIG RMK QFE758/1011
VFR 3°C / 1°C 250º variable 220º to 280º 4kt >10km - Clouds and Visibility OK 1016 No Significant change. Runway 22: Wet or puddles, 1-10% contamination with 2mm, friction coefficient 0.65. UARR 241900Z 25002MPS 220V280 CAVOK 03/01 Q1016 R22/210265 NOSIG RMK QFE758/1011
VFR 2°C / 1°C 220º 2kt >10km - Clouds and Visibility OK 1016 No Significant change. Runway 22: Wet or puddles, 1-10% contamination with 2mm, friction coefficient 0.65. UARR 241830Z 22001MPS CAVOK 02/01 Q1016 R22/210265 NOSIG RMK QFE758/1011
VFR 2°C / 0°C 220º 2kt >10km - Clouds and Visibility OK 1016 No Significant change. Runway 22: Wet or puddles, 1-10% contamination with 2mm, friction coefficient 0.65. UARR 241800Z 22001MPS CAVOK 02/00 Q1016 R22/210265 NOSIG RMK QFE759/1012
VFR 2°C / 1°C 260º 4kt >10km - Clouds and Visibility OK 1016 No Significant change. Runway 22: Wet or puddles, 1-10% contamination with 2mm, friction coefficient 0.65. UARR 241730Z 26002MPS CAVOK 02/01 Q1016 R22/210265 NOSIG RMK QFE759/1012
VFR 4°C / 1°C 270º 4kt >10km - Clouds and Visibility OK 1016 No Significant change. Runway 22: Wet or puddles, 1-10% contamination with 2mm, friction coefficient 0.65. UARR 241700Z 27002MPS CAVOK 04/01 Q1016 R22/210265 NOSIG RMK QFE758/1011
VFR 5°C / 2°C 270º 4kt >10km - Clouds and Visibility OK 1016 No Significant change. Runway 22: Wet or puddles, 1-10% contamination with 2mm, friction coefficient 0.65. UARR 241630Z 27002MPS CAVOK 05/02 Q1016 R22/210265 NOSIG RMK QFE758/1011
VFR 5°C / 2°C 270º 6kt >10km - Clouds and Visibility OK 1016 No Significant change. Runway 22: Wet or puddles, 1-10% contamination with 2mm, friction coefficient 0.65. UARR 241600Z 27003MPS CAVOK 05/02 Q1016 R22/210265 NOSIG RMK QFE758/1011
VFR 6°C / 3°C 260º 4kt >10km - Clouds and Visibility OK 1016 No Significant change. Runway 22: Wet or puddles, 1-10% contamination with 2mm, friction coefficient 0.65. UARR 241530Z 26002MPS CAVOK 06/03 Q1016 R22/210265 NOSIG RMK QFE758/1011
VFR 7°C / 3°C 260º 6kt >10km - Clouds and Visibility OK 1016 No Significant change. Runway 22: Wet or puddles, 1-10% contamination with 2mm, friction coefficient 0.65. UARR 241500Z 26003MPS CAVOK 07/03 Q1016 R22/210265 NOSIG RMK QFE758/1011
VFR 8°C / 3°C 270º 6kt >10km - Clouds and Visibility OK 1016 No Significant change. Runway 22: Wet or puddles, 1-10% contamination with 2mm, friction coefficient 0.65. UARR 241430Z 27003MPS CAVOK 08/03 Q1016 R22/210265 NOSIG RMK QFE758/1011
VFR 8°C / 3°C 270º 8kt >10km - Clouds and Visibility OK 1016 No Significant change. Runway 22: Wet or puddles, 1-10% contamination with 2mm, friction coefficient 0.65. UARR 241400Z 27004MPS CAVOK 08/03 Q1016 R22/210265 NOSIG RMK QFE758/1011
VFR 8°C / 3°C 270º 6kt >10km - Clouds and Visibility OK 1016 No Significant change. Runway 22: Wet or puddles, 1-10% contamination with 2mm, friction coefficient 0.65. UARR 241330Z 27003MPS CAVOK 08/03 Q1016 R22/210265 NOSIG RMK QFE758/1011
VFR 10°C / 4°C 300º 8kt >10km - Clouds and Visibility OK 1016 No Significant change. Runway 22: Wet or puddles, 1-10% contamination with 2mm, friction coefficient 0.65. UARR 241300Z 30004MPS CAVOK 10/04 Q1016 R22/210265 NOSIG RMK QFE758/1011
VFR 11°C / 4°C 300º 10kt >10km - Clouds and Visibility OK 1015 No Significant change. Runway 22: Wet or puddles, 1-10% contamination with 2mm, friction coefficient 0.65. UARR 241230Z 30005MPS CAVOK 11/04 Q1015 R22/210265 NOSIG RMK QFE758/1011
VFR 13°C / 5°C 300º 12kt >10km - Clouds and Visibility OK 1015 No Significant change. Runway 22: Wet or puddles, 1-10% contamination with 2mm, friction coefficient 0.65. UARR 241200Z 30006MPS CAVOK 13/05 Q1015 R22/210265 NOSIG RMK QFE758/1010
VFR 13°C / 5°C 290º 12kt >10km - Scattered Clouds 5000ft 1015 No Significant change. Runway 22: Wet or puddles, 1-10% contamination with 2mm, friction coefficient 0.65. UARR 241130Z 29006MPS 9999 SCT050CB 13/05 Q1015 R22/210265 NOSIG RMK QFE757/1010
VFR 13°C / 6°C 290º 12kt >10km - Broken Clouds 5000ft 1015 No Significant change. Runway 22: Wet or puddles, 1-10% contamination with 2mm, friction coefficient 0.65. UARR 241100Z 29006MPS 9999 BKN050CB 13/06 Q1015 R22/210265 NOSIG RMK QFE757/1010
MVFR 13°C / 9°C 280º 10kt 9000m - Broken Clouds 2300ft 1014 No Significant change. Runway 22: Wet or puddles, 11-25% contamination with 3mm, friction coefficient 0.60. UARR 241030Z 28005MPS 9000 BKN023CB 13/09 Q1014 R22/220360 NOSIG RMK QFE757/1010

VFR

2°C / 2°C

[Więcej]
Wiatr 210º 4kt
Widzialność >10km
Pogoda -
Chmury Clouds and Visibility OK
Ciśn. atm. 1016
Zmień No Significant change. Runway 22: Wet or puddles, 1-10% contamination with 2mm, friction coefficient 0.65.
Surowy UARR 242200Z 21002MPS CAVOK 02/02 Q1016 R22/210265 NOSIG RMK QFE758/1011

VFR

3°C / 2°C

[Więcej]
Wiatr variable 2kt
Widzialność >10km
Pogoda -
Chmury Clouds and Visibility OK
Ciśn. atm. 1016
Zmień No Significant change. Runway 22: Wet or puddles, 1-10% contamination with 2mm, friction coefficient 0.65.
Surowy UARR 242130Z VRB01MPS CAVOK 03/02 Q1016 R22/210265 NOSIG RMK QFE758/1011

VFR

3°C / 2°C

[Więcej]
Wiatr 280º 4kt
Widzialność >10km
Pogoda -
Chmury Clouds and Visibility OK
Ciśn. atm. 1016
Zmień No Significant change. Runway 22: Wet or puddles, 1-10% contamination with 2mm, friction coefficient 0.65.
Surowy UARR 242100Z 28002MPS CAVOK 03/02 Q1016 R22/210265 NOSIG RMK QFE758/1011

VFR

3°C / 2°C

[Więcej]
Wiatr 210º 4kt
Widzialność >10km
Pogoda -
Chmury Clouds and Visibility OK
Ciśn. atm. 1016
Zmień No Significant change. Runway 22: Wet or puddles, 1-10% contamination with 2mm, friction coefficient 0.65.
Surowy UARR 242030Z 21002MPS CAVOK 03/02 Q1016 R22/210265 NOSIG RMK QFE758/1011

VFR

2°C / 1°C

[Więcej]
Wiatr 170º 4kt
Widzialność >10km
Pogoda -
Chmury Clouds and Visibility OK
Ciśn. atm. 1016
Zmień No Significant change. Runway 22: Wet or puddles, 1-10% contamination with 2mm, friction coefficient 0.65.
Surowy UARR 242000Z 17002MPS CAVOK 02/01 Q1016 R22/210265 NOSIG RMK QFE758/1011

VFR

2°C / 1°C

[Więcej]
Wiatr variable 2kt
Widzialność >10km
Pogoda -
Chmury Clouds and Visibility OK
Ciśn. atm. 1016
Zmień No Significant change. Runway 22: Wet or puddles, 1-10% contamination with 2mm, friction coefficient 0.65.
Surowy UARR 241930Z VRB01MPS CAVOK 02/01 Q1016 R22/210265 NOSIG RMK QFE758/1011

VFR

3°C / 1°C

[Więcej]
Wiatr 250º variable 220º to 280º 4kt
Widzialność >10km
Pogoda -
Chmury Clouds and Visibility OK
Ciśn. atm. 1016
Zmień No Significant change. Runway 22: Wet or puddles, 1-10% contamination with 2mm, friction coefficient 0.65.
Surowy UARR 241900Z 25002MPS 220V280 CAVOK 03/01 Q1016 R22/210265 NOSIG RMK QFE758/1011

VFR

2°C / 1°C

[Więcej]
Wiatr 220º 2kt
Widzialność >10km
Pogoda -
Chmury Clouds and Visibility OK
Ciśn. atm. 1016
Zmień No Significant change. Runway 22: Wet or puddles, 1-10% contamination with 2mm, friction coefficient 0.65.
Surowy UARR 241830Z 22001MPS CAVOK 02/01 Q1016 R22/210265 NOSIG RMK QFE758/1011

VFR

2°C / 0°C

[Więcej]
Wiatr 220º 2kt
Widzialność >10km
Pogoda -
Chmury Clouds and Visibility OK
Ciśn. atm. 1016
Zmień No Significant change. Runway 22: Wet or puddles, 1-10% contamination with 2mm, friction coefficient 0.65.
Surowy UARR 241800Z 22001MPS CAVOK 02/00 Q1016 R22/210265 NOSIG RMK QFE759/1012

VFR

2°C / 1°C

[Więcej]
Wiatr 260º 4kt
Widzialność >10km
Pogoda -
Chmury Clouds and Visibility OK
Ciśn. atm. 1016
Zmień No Significant change. Runway 22: Wet or puddles, 1-10% contamination with 2mm, friction coefficient 0.65.
Surowy UARR 241730Z 26002MPS CAVOK 02/01 Q1016 R22/210265 NOSIG RMK QFE759/1012

VFR

4°C / 1°C

[Więcej]
Wiatr 270º 4kt
Widzialność >10km
Pogoda -
Chmury Clouds and Visibility OK
Ciśn. atm. 1016
Zmień No Significant change. Runway 22: Wet or puddles, 1-10% contamination with 2mm, friction coefficient 0.65.
Surowy UARR 241700Z 27002MPS CAVOK 04/01 Q1016 R22/210265 NOSIG RMK QFE758/1011

VFR

5°C / 2°C

[Więcej]
Wiatr 270º 4kt
Widzialność >10km
Pogoda -
Chmury Clouds and Visibility OK
Ciśn. atm. 1016
Zmień No Significant change. Runway 22: Wet or puddles, 1-10% contamination with 2mm, friction coefficient 0.65.
Surowy UARR 241630Z 27002MPS CAVOK 05/02 Q1016 R22/210265 NOSIG RMK QFE758/1011

VFR

5°C / 2°C

[Więcej]
Wiatr 270º 6kt
Widzialność >10km
Pogoda -
Chmury Clouds and Visibility OK
Ciśn. atm. 1016
Zmień No Significant change. Runway 22: Wet or puddles, 1-10% contamination with 2mm, friction coefficient 0.65.
Surowy UARR 241600Z 27003MPS CAVOK 05/02 Q1016 R22/210265 NOSIG RMK QFE758/1011

VFR

6°C / 3°C

[Więcej]
Wiatr 260º 4kt
Widzialność >10km
Pogoda -
Chmury Clouds and Visibility OK
Ciśn. atm. 1016
Zmień No Significant change. Runway 22: Wet or puddles, 1-10% contamination with 2mm, friction coefficient 0.65.
Surowy UARR 241530Z 26002MPS CAVOK 06/03 Q1016 R22/210265 NOSIG RMK QFE758/1011

VFR

7°C / 3°C

[Więcej]
Wiatr 260º 6kt
Widzialność >10km
Pogoda -
Chmury Clouds and Visibility OK
Ciśn. atm. 1016
Zmień No Significant change. Runway 22: Wet or puddles, 1-10% contamination with 2mm, friction coefficient 0.65.
Surowy UARR 241500Z 26003MPS CAVOK 07/03 Q1016 R22/210265 NOSIG RMK QFE758/1011

VFR

8°C / 3°C

[Więcej]
Wiatr 270º 6kt
Widzialność >10km
Pogoda -
Chmury Clouds and Visibility OK
Ciśn. atm. 1016
Zmień No Significant change. Runway 22: Wet or puddles, 1-10% contamination with 2mm, friction coefficient 0.65.
Surowy UARR 241430Z 27003MPS CAVOK 08/03 Q1016 R22/210265 NOSIG RMK QFE758/1011

VFR

8°C / 3°C

[Więcej]
Wiatr 270º 8kt
Widzialność >10km
Pogoda -
Chmury Clouds and Visibility OK
Ciśn. atm. 1016
Zmień No Significant change. Runway 22: Wet or puddles, 1-10% contamination with 2mm, friction coefficient 0.65.
Surowy UARR 241400Z 27004MPS CAVOK 08/03 Q1016 R22/210265 NOSIG RMK QFE758/1011

VFR

8°C / 3°C

[Więcej]
Wiatr 270º 6kt
Widzialność >10km
Pogoda -
Chmury Clouds and Visibility OK
Ciśn. atm. 1016
Zmień No Significant change. Runway 22: Wet or puddles, 1-10% contamination with 2mm, friction coefficient 0.65.
Surowy UARR 241330Z 27003MPS CAVOK 08/03 Q1016 R22/210265 NOSIG RMK QFE758/1011

VFR

10°C / 4°C

[Więcej]
Wiatr 300º 8kt
Widzialność >10km
Pogoda -
Chmury Clouds and Visibility OK
Ciśn. atm. 1016
Zmień No Significant change. Runway 22: Wet or puddles, 1-10% contamination with 2mm, friction coefficient 0.65.
Surowy UARR 241300Z 30004MPS CAVOK 10/04 Q1016 R22/210265 NOSIG RMK QFE758/1011

VFR

11°C / 4°C

[Więcej]
Wiatr 300º 10kt
Widzialność >10km
Pogoda -
Chmury Clouds and Visibility OK
Ciśn. atm. 1015
Zmień No Significant change. Runway 22: Wet or puddles, 1-10% contamination with 2mm, friction coefficient 0.65.
Surowy UARR 241230Z 30005MPS CAVOK 11/04 Q1015 R22/210265 NOSIG RMK QFE758/1011

VFR

13°C / 5°C

[Więcej]
Wiatr 300º 12kt
Widzialność >10km
Pogoda -
Chmury Clouds and Visibility OK
Ciśn. atm. 1015
Zmień No Significant change. Runway 22: Wet or puddles, 1-10% contamination with 2mm, friction coefficient 0.65.
Surowy UARR 241200Z 30006MPS CAVOK 13/05 Q1015 R22/210265 NOSIG RMK QFE758/1010

VFR

13°C / 5°C

[Więcej]
Wiatr 290º 12kt
Widzialność >10km
Pogoda -
Chmury Scattered Clouds 5000ft
Ciśn. atm. 1015
Zmień No Significant change. Runway 22: Wet or puddles, 1-10% contamination with 2mm, friction coefficient 0.65.
Surowy UARR 241130Z 29006MPS 9999 SCT050CB 13/05 Q1015 R22/210265 NOSIG RMK QFE757/1010

VFR

13°C / 6°C

[Więcej]
Wiatr 290º 12kt
Widzialność >10km
Pogoda -
Chmury Broken Clouds 5000ft
Ciśn. atm. 1015
Zmień No Significant change. Runway 22: Wet or puddles, 1-10% contamination with 2mm, friction coefficient 0.65.
Surowy UARR 241100Z 29006MPS 9999 BKN050CB 13/06 Q1015 R22/210265 NOSIG RMK QFE757/1010

MVFR

13°C / 9°C

[Więcej]
Wiatr 280º 10kt
Widzialność 9000m
Pogoda -
Chmury Broken Clouds 2300ft
Ciśn. atm. 1014
Zmień No Significant change. Runway 22: Wet or puddles, 11-25% contamination with 3mm, friction coefficient 0.60.
Surowy UARR 241030Z 28005MPS 9000 BKN023CB 13/09 Q1014 R22/220360 NOSIG RMK QFE757/1010

TAF dla 51.15°N 51.54°E (UARR)

From till


From till Wind variable 4kt. Visibility 10km or more. Broken Clouds 2000ft.
Temporarly from till Visibility 3100m. Light Showers Rain Mist . Broken Clouds 1100ft. Broken Clouds 3000ft.
Temporarly from till Wind 280º 10kt. Visibility 3100m. Mist . Scattered Clouds 1100ft.

Surowy: TAF UARR 242001Z 2421/2506 VRB02MPS 9999 BKN020 TEMPO 2421/2503 3100 -SHRA BR BKN011 BKN030CB TEMPO 2503/2506 28005MPS 3100 BR SCT011

Aktualne zdjęcia satelitarne i zdjęcia opadów deszczu dla 51.15°N 51.54°E

Wskaźnik lokalizacji znajduje się na 51.15°N 51.54°E. [Więcej]

Obraz satelitarny w czasie rzeczywistym łączy światło widzialne w ciągu dnia z promieniowaniem podczerwonym w nocy. W nocy obraz nie jest ciemny, ponieważ promieniowanie podczerwone może wykrywać różnice temperatur. Niestety niskie chmury i mgłę trudno odróżnić od temperatury gruntu, przez co mogą być prawie niewidoczne w nocy. Zdjęcia satelitarne Meteosat dla Europy są aktualizowane w czasie rzeczywistym co 5 minut. Obrazy GOES-16/GOES-17 (Ameryka Północna i Południowa) oraz Himawari (Azja) są aktualizowane co 10 minut.

Prawa autorskie 2021 EUMETSAT / meteoblue. / Prawa autorskie 2021 meteoblue

Radar i prognoza opadów na teraz dla 51.15°N 51.54°E

Mżawka
Lekki
Umiarkowane
Ulewne
Bardzo ciężkie
Grad

Wskaźnik lokalizacji jest umieszczony na 51.15°N 51.54°E. Animacja przedstawia radar opadów dla ostatniej godziny, jak również 1h prognozę pogody. Mżawka lub lekki opad śniegu może być niewidoczny dla radaru. Intensywność opadów jest oznaczona kolorami, od jasnoniebieskiego do pomarańczowego.